Interactive Weather Chart

4 Day

Outlook

Weather Updates

Severe Weather for Tasmania

Severe Weather for Tasmania

We would like to apologise for the cancellations and delays to our services over the last few days. The weather we have experienced in Tasmania, and especially in the Furneaux Islands has been quite severe. We understand that the islands depend on the services we...

A Boggy Day in Bridport

A Boggy Day in Bridport

The team at Flinders Island Aviation Services would like to thank everyone for their patience and understanding of the delays to our service over the last few weeks. Tasmania has been subject to high rainfalls, leading to major flooding on the Tasmanian mainland. Unfortunately, the rains have continued in Tasmania today, while the island has enjoyed quite a nice day. We thought this may be a good time to show some of the water that has landed at our airstrip in Bridport.

A Smokey Day For Bass Strait

A Smokey Day For Bass Strait

Our pilots are very experienced in handling the unexpected challenges the weather of Bass Strait is known to throw at us. From strong winds, to rain and storms, and of course the infamous summer sea fogs. Today however, we were surprised by a rarer breed of...

Current Conditions

Flinders Island

METAR YFLI 200730Z AUTO 28009KT 9999 // NCD 09/06 Q1019 RMK
RF00.0/000.0

Launceston

METAR YMLT 200730Z AUTO 33010KT 9999 // BKN061 08/04 Q1017 RMK
RF00.0/000.0

Current Forecasts

Flinders Island

TAF YFLI 200701Z 2008/2020
27012KT 9999 SCT030
FM201300 04006KT 9999 SCT025
RMK
T 09 09 10 08 Q 1019 1019 1018 1017

Launceston

TAF YMLT 200506Z 2006/2106
32008KT 9999 BKN045
FM201200 VRB05KT 9999 SCT025
FM210200 34008KT 9999 -SHRA SCT020 BKN025
PROB30 2015/2023 0500 FG
RMK
T 10 06 04 03 Q 1018 1018 1018 1017

Aviation forecasts shown above are sourced from a third party, and as such Flinders Island Aviation Services cannot be held responsible for the accuracy of the information provided. This information is not intended for use in flight planning.